,,PA_Meas_PMT16A,,PR_Meas_QMR101_102,,RH_Meas_QMH101,,SR_Meas_QMS101,,TA_Meas_QMH101,,GenWind,,GenWind,
time,status,PA,status,PR,status,RH,status,SR,status,TA,status,DirAvg,status,SpdAvg,
2011-08-06, 00:00:04,VALID,916.521,VALID,0,VALID,97.2138,VALID,0,VALID,19.3518,VALID,355,VALID,0.56875,
2011-08-06, 00:01:04,VALID,916.555,VALID,0,VALID,97.2443,VALID,0,VALID,19.3908,VALID,355,VALID,0.442578,
2011-08-06, 00:02:04,VALID,916.531,VALID,0,VALID,97.2214,VALID,0,VALID,19.4103,VALID,355,VALID,0.446875,
2011-08-06, 00:03:04,VALID,916.554,VALID,0,VALID,97.2443,VALID,0,VALID,19.4493,VALID,355,VALID,0.272266,
2011-08-06, 00:04:04,VALID,916.526,VALID,0,VALID,97.2367,VALID,0,VALID,19.4898,VALID,355,VALID,0.405078,
2011-08-06, 00:05:04,VALID,916.523,VALID,0,VALID,97.2519,VALID,0,VALID,19.4883,VALID,355,VALID,0.30625,
2011-08-06, 00:06:04,VALID,916.483,VALID,0,VALID,97.2672,VALID,0,VALID,19.4688,VALID,355,VALID,0.318359,
2011-08-06, 00:07:04,VALID,916.509,VALID,0,VALID,97.2443,VALID,0,VALID,19.4883,VALID,355,VALID,0,
2011-08-06, 00:08:04,VALID,916.493,VALID,0,VALID,97.2519,VALID,0,VALID,19.5078,VALID,355,VALID,0.193359,
2011-08-06, 00:09:04,VALID,916.488,VALID,0,VALID,97.2138,VALID,0,VALID,19.5063,VALID,355,VALID,0,
2011-08-06, 00:10:04,VALID,916.483,VALID,0,VALID,97.2519,VALID,0,VALID,19.5273,VALID,355,VALID,0.344922,
2011-08-06, 00:11:04,VALID,916.469,VALID,0,VALID,97.2367,VALID,0,VALID,19.5273,VALID,355,VALID,0.238281,
2011-08-06, 00:12:04,VALID,916.438,VALID,0,VALID,97.2367,VALID,0,VALID,19.5078,VALID,355,VALID,0.440625,
2011-08-06, 00:13:04,VALID,916.476,VALID,0,VALID,97.229,VALID,0,VALID,19.5078,VALID,355,VALID,0.120703,
2011-08-06, 00:14:04,VALID,916.45,VALID,0,VALID,97.2443,VALID,0,VALID,19.5078,VALID,355,VALID,0.779297,
2011-08-06, 00:15:04,VALID,916.445,VALID,0,VALID,97.2367,VALID,0,VALID,19.5078,VALID,355,VALID,0.609375,
2011-08-06, 00:16:04,VALID,916.45,VALID,0,VALID,97.229,VALID,0,VALID,19.4883,VALID,355,VALID,0.823828,
2011-08-06, 00:17:04,VALID,916.425,VALID,0,VALID,97.2443,VALID,0,VALID,19.5078,VALID,355,VALID,0.596875,
2011-08-06, 00:18:04,VALID,916.414,VALID,0,VALID,97.2595,VALID,0,VALID,19.5288,VALID,355,VALID,0.205469,
2011-08-06, 00:19:04,VALID,916.409,VALID,0,VALID,97.2443,VALID,0,VALID,19.5078,VALID,355,VALID,0,
2011-08-06, 00:20:04,VALID,916.391,VALID,0,VALID,97.2443,VALID,0,VALID,19.5078,VALID,355,VALID,0,
2011-08-06, 00:21:04,VALID,916.392,VALID,0,VALID,97.2595,VALID,0,VALID,19.5273,VALID,355,VALID,0.187109,
2011-08-06, 00:22:04,VALID,916.332,VALID,0,VALID,97.2672,VALID,0,VALID,19.5468,VALID,355,VALID,0.129688,
2011-08-06, 00:23:04,VALID,916.331,VALID,0,VALID,97.2824,VALID,0,VALID,19.5468,VALID,355,VALID,0.241406,
2011-08-06, 00:24:04,VALID,916.305,VALID,0,VALID,97.2748,VALID,0,VALID,19.5093,VALID,355,VALID,0.583203,
2011-08-06, 00:25:04,VALID,916.296,VALID,0,VALID,97.2672,VALID,0,VALID,19.4493,VALID,356,VALID,1.06914,
2011-08-06, 00:26:04,VALID,916.261,VALID,0,VALID,97.2519,VALID,0,VALID,19.4088,VALID,180,VALID,0.944922,
2011-08-06, 00:27:04,VALID,916.272,VALID,0,VALID,97.2672,VALID,0,VALID,19.3893,VALID,180,VALID,0.512891,
2011-08-06, 00:28:04,VALID,916.206,VALID,0,VALID,97.2595,VALID,0,VALID,19.4103,VALID,180,VALID,0.492969,
2011-08-06, 00:29:04,VALID,916.223,VALID,0,VALID,97.2748,VALID,0,VALID,19.3713,VALID,144,VALID,1.0207,
2011-08-06, 00:30:04,VALID,916.219,VALID,0,VALID,97.2824,VALID,0,VALID,19.3518,VALID,148,VALID,0.673047,
2011-08-06, 00:31:04,VALID,916.207,VALID,0,VALID,97.2672,VALID,0,VALID,19.3713,VALID,148,VALID,0.310547,
2011-08-06, 00:32:04,VALID,916.194,VALID,0,VALID,97.2824,VALID,0,VALID,19.3908,VALID,148,VALID,0.258984,
2011-08-06, 00:33:04,VALID,916.182,VALID,0,VALID,97.2748,VALID,0,VALID,19.3713,VALID,148,VALID,0.755469,
2011-08-06, 00:34:04,VALID,916.159,VALID,0,VALID,97.2824,VALID,0,VALID,19.3713,VALID,148,VALID,0.722266,
2011-08-06, 00:35:04,VALID,916.148,VALID,0,VALID,97.29,VALID,0,VALID,19.3323,VALID,151,VALID,0.732422,
2011-08-06, 00:36:04,VALID,916.146,VALID,0,VALID,97.29,VALID,0,VALID,19.3113,VALID,151,VALID,0.261328,
2011-08-06, 00:37:04,VALID,916.103,VALID,0,VALID,97.3053,VALID,0,VALID,19.2918,VALID,142,VALID,0.879297,
2011-08-06, 00:38:04,VALID,916.087,VALID,0,VALID,97.29,VALID,0,VALID,19.2738,VALID,119,VALID,0.367578,
2011-08-06, 00:39:04,VALID,916.071,VALID,0,VALID,97.2824,VALID,0,VALID,19.2738,VALID,119,VALID,0.439453,
2011-08-06, 00:40:04,VALID,916.074,VALID,0,VALID,97.3129,VALID,0,VALID,19.2334,VALID,119,VALID,0.530469,
2011-08-06, 00:41:04,VALID,916.074,VALID,0,VALID,97.3129,VALID,0,VALID,19.2543,VALID,119,VALID,0.133203,
2011-08-06, 00:42:04,VALID,916.093,VALID,0,VALID,97.3129,VALID,0,VALID,19.2348,VALID,120,VALID,0.718359,
2011-08-06, 00:43:04,VALID,916.121,VALID,0,VALID,97.3205,VALID,0,VALID,19.2153,VALID,120,VALID,0.283984,
2011-08-06, 00:44:04,VALID,916.069,VALID,0,VALID,97.3205,VALID,0,VALID,19.2153,VALID,120,VALID,0.293359,
2011-08-06, 00:45:04,VALID,916.086,VALID,0,VALID,97.3281,VALID,0,VALID,19.1944,VALID,120,VALID,0,
2011-08-06, 00:46:04,VALID,916.113,VALID,0,VALID,97.3434,VALID,0,VALID,19.2153,VALID,120,VALID,0.139062,
2011-08-06, 00:47:04,VALID,916.1,VALID,0,VALID,97.3434,VALID,0,VALID,19.1944,VALID,120,VALID,0.589063,
2011-08-06, 00:48:04,VALID,916.085,VALID,0,VALID,97.3205,VALID,0,VALID,19.1958,VALID,120,VALID,0.585547,
2011-08-06, 00:49:04,VALID,916.083,VALID,0,VALID,97.3434,VALID,0,VALID,19.1958,VALID,120,VALID,0.500781,
2011-08-06, 00:50:04,VALID,916.081,VALID,0,VALID,97.351,VALID,0,VALID,19.1568,VALID,120,VALID,0,
2011-08-06, 00:51:04,VALID,916.1,VALID,0,VALID,97.3434,VALID,0,VALID,19.1958,VALID,120,VALID,0.379297,
2011-08-06, 00:52:04,VALID,916.096,VALID,0,VALID,97.3586,VALID,0,VALID,19.1958,VALID,120,VALID,0.299609,
2011-08-06, 00:53:04,VALID,916.084,VALID,0,VALID,97.3586,VALID,0,VALID,19.2348,VALID,120,VALID,0.0363281,
2011-08-06, 00:54:04,VALID,916.105,VALID,0,VALID,97.3586,VALID,0,VALID,19.2348,VALID,120,VALID,0,
2011-08-06, 00:55:04,VALID,916.085,VALID,0,VALID,97.3739,VALID,0,VALID,19.2753,VALID,120,VALID,0,
2011-08-06, 00:56:04,VALID,916.069,VALID,0,VALID,97.3586,VALID,0,VALID,19.2348,VALID,120,VALID,0,
2011-08-06, 00:57:04,VALID,916.072,VALID,0,VALID,97.3815,VALID,0,VALID,19.2948,VALID,120,VALID,0,
2011-08-06, 00:58:04,VALID,916.053,VALID,0,VALID,97.3968,VALID,0,VALID,19.2933,VALID,120,VALID,0.442187,
2011-08-06, 00:59:04,VALID,916.034,VALID,0,VALID,97.3739,VALID,0,VALID,19.3323,VALID,120,VALID,0.340625,
2011-08-06, 01:00:04,VALID,916.045,VALID,0,VALID,97.3739,VALID,0,VALID,19.2933,VALID,120,VALID,0.605469,
2011-08-06, 01:01:04,VALID,916.054,VALID,0,VALID,97.3739,VALID,0,VALID,19.3128,VALID,120,VALID,0.676953,
2011-08-06, 01:02:04,VALID,916.039,VALID,0,VALID,97.3815,VALID,0,VALID,19.3518,VALID,120,VALID,0.567969,
2011-08-06, 01:03:04,VALID,916.059,VALID,0,VALID,97.3739,VALID,0,VALID,19.2543,VALID,120,VALID,0.418359,
2011-08-06, 01:04:04,VALID,916.049,VALID,0,VALID,97.351,VALID,0,VALID,19.2153,VALID,120,VALID,0.580469,
2011-08-06, 01:05:04,VALID,916.036,VALID,0,VALID,97.3434,VALID,0,VALID,19.1373,VALID,120,VALID,0.511328,
2011-08-06, 01:06:04,VALID,916.039,VALID,0,VALID,97.3434,VALID,0,VALID,19.1178,VALID,120,VALID,0.798828,
2011-08-06, 01:07:04,VALID,916.02,VALID,0,VALID,97.3739,VALID,0,VALID,19.1359,VALID,120,VALID,0.724219,
2011-08-06, 01:08:04,VALID,915.999,VALID,0,VALID,97.3586,VALID,0,VALID,19.1568,VALID,120,VALID,0.790625,
2011-08-06, 01:09:04,VALID,915.955,VALID,0,VALID,97.3739,VALID,0,VALID,19.1178,VALID,120,VALID,0.917188,
2011-08-06, 01:10:04,VALID,915.918,VALID,0,VALID,97.3663,VALID,0,VALID,19.0983,VALID,120,VALID,0.833203,
2011-08-06, 01:11:04,VALID,915.902,VALID,0,VALID,97.3663,VALID,0,VALID,19.0398,VALID,120,VALID,0.800391,
2011-08-06, 01:12:04,VALID,915.848,VALID,0,VALID,97.351,VALID,0,VALID,19.0008,VALID,120,VALID,0.760547,
2011-08-06, 01:13:04,VALID,915.868,VALID,0,VALID,97.351,VALID,0,VALID,18.9814,VALID,120,VALID,0.558203,
2011-08-06, 01:14:04,VALID,915.848,VALID,0,VALID,97.3434,VALID,0,VALID,18.9424,VALID,120,VALID,0.615625,
2011-08-06, 01:15:04,VALID,915.891,VALID,0,VALID,97.3891,VALID,0,VALID,18.9604,VALID,120,VALID,0.457422,
2011-08-06, 01:16:04,VALID,915.847,VALID,0,VALID,97.3739,VALID,0,VALID,18.9619,VALID,120,VALID,0.539063,
2011-08-06, 01:17:04,VALID,915.812,VALID,0,VALID,97.3815,VALID,0,VALID,18.9424,VALID,120,VALID,0.519922,
2011-08-06, 01:18:04,VALID,915.803,VALID,0,VALID,97.3968,VALID,0,VALID,18.9438,VALID,120,VALID,0.750781,
2011-08-06, 01:19:04,VALID,915.816,VALID,0,VALID,97.3739,VALID,0,VALID,18.9019,VALID,120,VALID,0.819531,
2011-08-06, 01:20:04,VALID,915.767,VALID,0,VALID,97.3815,VALID,0,VALID,18.8839,VALID,120,VALID,0.520312,
2011-08-06, 01:21:04,VALID,915.768,VALID,0,VALID,97.4044,VALID,0,VALID,18.8644,VALID,120,VALID,0.475391,
2011-08-06, 01:22:04,VALID,915.793,VALID,0,VALID,97.412,VALID,0,VALID,18.8449,VALID,120,VALID,0,
2011-08-06, 01:23:04,VALID,915.785,VALID,0,VALID,97.4349,VALID,0,VALID,18.8449,VALID,120,VALID,0,
2011-08-06, 01:24:04,VALID,915.771,VALID,0,VALID,97.4425,VALID,0,VALID,18.8839,VALID,120,VALID,0.219531,
2011-08-06, 01:25:04,VALID,915.793,VALID,0,VALID,97.4577,VALID,0,VALID,18.9214,VALID,120,VALID,0.253125,
2011-08-06, 01:26:04,VALID,915.815,VALID,0,VALID,97.4349,VALID,0,VALID,18.9229,VALID,120,VALID,0.0347656,
2011-08-06, 01:27:04,VALID,915.795,VALID,0,VALID,97.4273,VALID,0,VALID,18.9229,VALID,120,VALID,0,
2011-08-06, 01:28:04,VALID,915.809,VALID,0,VALID,97.473,VALID,0,VALID,18.9229,VALID,120,VALID,0,
2011-08-06, 01:29:04,VALID,915.807,VALID,0,VALID,97.4501,VALID,0,VALID,18.9034,VALID,120,VALID,0.2625,
2011-08-06, 01:30:04,VALID,915.803,VALID,0,VALID,97.4577,VALID,0,VALID,18.8644,VALID,120,VALID,0.174219,
2011-08-06, 01:31:04,VALID,915.817,VALID,0,VALID,97.4654,VALID,0,VALID,18.8254,VALID,120,VALID,0.355859,
2011-08-06, 01:32:04,VALID,915.798,VALID,0,VALID,97.4806,VALID,0,VALID,18.7864,VALID,120,VALID,0.266797,
2011-08-06, 01:33:04,VALID,915.821,VALID,0,VALID,97.473,VALID,0,VALID,18.7669,VALID,120,VALID,0,
2011-08-06, 01:34:04,VALID,915.796,VALID,0,VALID,97.4577,VALID,0,VALID,18.7669,VALID,120,VALID,0,
2011-08-06, 01:35:04,VALID,915.773,VALID,0,VALID,97.4882,VALID,0,VALID,18.7864,VALID,120,VALID,0,
2011-08-06, 01:36:04,VALID,915.759,VALID,0,VALID,97.473,VALID,0,VALID,18.8059,VALID,120,VALID,0,
2011-08-06, 01:37:04,VALID,915.744,VALID,0,VALID,97.473,VALID,0,VALID,18.7864,VALID,120,VALID,0.0855469,
2011-08-06, 01:38:04,VALID,915.717,VALID,0,VALID,97.4882,VALID,0,VALID,18.7655,VALID,120,VALID,0.400391,
2011-08-06, 01:39:04,VALID,915.722,VALID,0,VALID,97.4959,VALID,0,VALID,18.8254,VALID,120,VALID,0.449609,
2011-08-06, 01:40:04,VALID,915.713,VALID,0,VALID,97.4882,VALID,0,VALID,18.8644,VALID,120,VALID,0.300781,
2011-08-06, 01:41:04,VALID,915.711,VALID,0,VALID,97.4959,VALID,0,VALID,18.8059,VALID,120,VALID,0.209766,
2011-08-06, 01:42:04,VALID,915.705,VALID,0,VALID,97.4959,VALID,0,VALID,18.8254,VALID,120,VALID,0.131641,
2011-08-06, 01:43:04,VALID,915.723,VALID,0,VALID,97.4882,VALID,0,VALID,18.7669,VALID,120,VALID,0.202344,
2011-08-06, 01:44:04,VALID,915.706,VALID,0,VALID,97.4806,VALID,0,VALID,18.7474,VALID,120,VALID,0.0921875,
2011-08-06, 01:45:04,VALID,915.68,VALID,0,VALID,97.4806,VALID,0,VALID,18.7474,VALID,120,VALID,0,
2011-08-06, 01:46:04,VALID,915.661,VALID,0,VALID,97.4882,VALID,0,VALID,18.7474,VALID,120,VALID,0.383594,
2011-08-06, 01:47:04,VALID,915.635,VALID,0,VALID,97.5035,VALID,0,VALID,18.7474,VALID,120,VALID,0.427344,
2011-08-06, 01:48:04,VALID,915.606,VALID,0,VALID,97.4806,VALID,0,VALID,18.7474,VALID,120,VALID,0.486719,
2011-08-06, 01:49:04,VALID,915.599,VALID,0,VALID,97.5111,VALID,0,VALID,18.7474,VALID,120,VALID,0.446484,
2011-08-06, 01:50:04,VALID,915.612,VALID,0,VALID,97.5187,VALID,0,VALID,18.7474,VALID,120,VALID,0.524609,
2011-08-06, 01:51:04,VALID,915.583,VALID,0,VALID,97.5264,VALID,0,VALID,18.7474,VALID,120,VALID,0.175,
2011-08-06, 01:52:04,VALID,915.6,VALID,0,VALID,97.4959,VALID,0,VALID,18.7669,VALID,120,VALID,0.473047,
2011-08-06, 01:53:04,VALID,915.63,VALID,0,VALID,97.534,VALID,0,VALID,18.7669,VALID,120,VALID,0.213281,
2011-08-06, 01:54:04,VALID,915.648,VALID,0,VALID,97.5187,VALID,0,VALID,18.7669,VALID,120,VALID,0.294922,
2011-08-06, 01:55:04,VALID,915.656,VALID,0,VALID,97.534,VALID,0,VALID,18.8254,VALID,120,VALID,0.297656,
2011-08-06, 01:56:04,VALID,915.662,VALID,0,VALID,97.534,VALID,0,VALID,18.8254,VALID,120,VALID,0.0757812,
2011-08-06, 01:57:04,VALID,915.696,VALID,0,VALID,97.5492,VALID,0,VALID,18.8449,VALID,120,VALID,0.609375,
2011-08-06, 01:58:04,VALID,915.646,VALID,0,VALID,97.5264,VALID,0,VALID,18.8254,VALID,165,VALID,0.604688,
2011-08-06, 01:59:04,VALID,915.672,VALID,0,VALID,97.5416,VALID,0,VALID,18.8449,VALID,165,VALID,0.205469,
2011-08-06, 02:00:04,VALID,915.637,VALID,0,VALID,97.534,VALID,0,VALID,18.8449,VALID,165,VALID,0.0585938,
2011-08-06, 02:01:04,VALID,915.654,VALID,0,VALID,97.534,VALID,0,VALID,18.8449,VALID,165,VALID,0,
2011-08-06, 02:02:04,VALID,915.618,VALID,0,VALID,97.534,VALID,0,VALID,18.8449,VALID,165,VALID,0,
2011-08-06, 02:03:04,VALID,915.614,VALID,0,VALID,97.5492,VALID,0,VALID,18.8644,VALID,165,VALID,0,
2011-08-06, 02:04:04,VALID,915.609,VALID,0,VALID,97.5492,VALID,0,VALID,18.8839,VALID,165,VALID,0,
2011-08-06, 02:05:04,VALID,915.581,VALID,0,VALID,97.5416,VALID,0,VALID,18.8839,VALID,165,VALID,0,
2011-08-06, 02:06:04,VALID,915.59,VALID,0,VALID,97.5569,VALID,0,VALID,18.8839,VALID,165,VALID,0,
2011-08-06, 02:07:04,VALID,915.539,VALID,0,VALID,97.5569,VALID,0,VALID,18.8644,VALID,165,VALID,0.308984,
2011-08-06, 02:08:04,VALID,915.566,VALID,0,VALID,97.534,VALID,0,VALID,18.8449,VALID,165,VALID,0.305859,
2011-08-06, 02:09:04,VALID,915.54,VALID,0,VALID,97.5721,VALID,0,VALID,18.8434,VALID,165,VALID,0.317578,
2011-08-06, 02:10:04,VALID,915.546,VALID,0,VALID,97.5492,VALID,0,VALID,18.8644,VALID,165,VALID,0.498828,
2011-08-06, 02:11:04,VALID,915.575,VALID,0,VALID,97.5416,VALID,0,VALID,18.8644,VALID,165,VALID,0.670313,
2011-08-06, 02:12:04,VALID,915.571,VALID,0,VALID,97.5416,VALID,0,VALID,18.8449,VALID,165,VALID,0.357812,
2011-08-06, 02:13:04,VALID,915.589,VALID,0,VALID,97.5645,VALID,0,VALID,18.8254,VALID,165,VALID,0.598047,
2011-08-06, 02:14:04,VALID,915.541,VALID,0,VALID,97.534,VALID,0,VALID,18.8254,VALID,165,VALID,0.476953,
2011-08-06, 02:15:04,VALID,915.541,VALID,0,VALID,97.5569,VALID,0,VALID,18.8463,VALID,165,VALID,0.423828,
2011-08-06, 02:16:04,VALID,915.509,VALID,0,VALID,97.5569,VALID,0,VALID,18.8059,VALID,165,VALID,0.468359,
2011-08-06, 02:17:04,VALID,915.488,VALID,0,VALID,97.5797,VALID,0,VALID,18.8059,VALID,165,VALID,0.165625,
2011-08-06, 02:18:04,VALID,915.438,VALID,0,VALID,97.5492,VALID,0,VALID,18.8254,VALID,165,VALID,0.164063,
2011-08-06, 02:19:04,VALID,915.466,VALID,0,VALID,97.5645,VALID,0,VALID,18.8254,VALID,165,VALID,0.0933594,
2011-08-06, 02:20:04,VALID,915.468,VALID,0,VALID,97.5569,VALID,0,VALID,18.8254,VALID,165,VALID,0.312109,
2011-08-06, 02:21:04,VALID,915.451,VALID,0,VALID,97.5721,VALID,0,VALID,18.7864,VALID,165,VALID,0.534375,
2011-08-06, 02:22:04,VALID,915.463,VALID,0,VALID,97.5492,VALID,0,VALID,18.8073,VALID,165,VALID,0.539844,
2011-08-06, 02:23:04,VALID,915.479,VALID,0,VALID,97.5797,VALID,0,VALID,18.7864,VALID,165,VALID,0.380859,
2011-08-06, 02:24:04,VALID,915.464,VALID,0,VALID,97.5416,VALID,0,VALID,18.8073,VALID,165,VALID,0.337891,
2011-08-06, 02:25:04,VALID,915.48,VALID,0,VALID,97.5721,VALID,0,VALID,18.7864,VALID,165,VALID,0.370313,
2011-08-06, 02:26:04,VALID,915.471,VALID,0,VALID,97.5797,VALID,0,VALID,18.7878,VALID,165,VALID,0.303125,
2011-08-06, 02:27:04,VALID,915.458,VALID,0,VALID,97.5797,VALID,0,VALID,18.8059,VALID,165,VALID,0.385156,
2011-08-06, 02:28:04,VALID,915.451,VALID,0,VALID,97.5721,VALID,0,VALID,18.8059,VALID,165,VALID,0.314063,
2011-08-06, 02:29:04,VALID,915.442,VALID,0,VALID,97.5721,VALID,0,VALID,18.7864,VALID,165,VALID,0.353125,
2011-08-06, 02:30:04,VALID,915.429,VALID,0,VALID,97.595,VALID,0,VALID,18.7669,VALID,165,VALID,0.664063,
2011-08-06, 02:31:04,VALID,915.432,VALID,0,VALID,97.5797,VALID,0,VALID,18.7683,VALID,165,VALID,0.866406,
2011-08-06, 02:32:04,VALID,915.417,VALID,0,VALID,97.595,VALID,0,VALID,18.7474,VALID,165,VALID,0.759375,
2011-08-06, 02:33:04,VALID,915.401,VALID,0,VALID,97.5873,VALID,0,VALID,18.7669,VALID,165,VALID,0.423828,
2011-08-06, 02:34:04,VALID,915.396,VALID,0,VALID,97.5873,VALID,0,VALID,18.7669,VALID,165,VALID,0.441016,
2011-08-06, 02:35:04,VALID,915.388,VALID,0,VALID,97.6102,VALID,0,VALID,18.7669,VALID,165,VALID,0.748828,
2011-08-06, 02:36:04,VALID,915.367,VALID,0,VALID,97.595,VALID,0,VALID,18.7669,VALID,165,VALID,0.475,
2011-08-06, 02:37:04,VALID,915.371,VALID,0,VALID,97.595,VALID,0,VALID,18.7265,VALID,165,VALID,0.614844,
2011-08-06, 02:38:04,VALID,915.358,VALID,0,VALID,97.6026,VALID,0,VALID,18.7474,VALID,165,VALID,0.674219,
2011-08-06, 02:39:04,VALID,915.333,VALID,0,VALID,97.6026,VALID,0,VALID,18.7669,VALID,164,VALID,0.302734,
2011-08-06, 02:40:04,VALID,915.336,VALID,0,VALID,97.6026,VALID,0,VALID,18.7669,VALID,164,VALID,0.409375,
2011-08-06, 02:41:04,VALID,915.333,VALID,0,VALID,97.595,VALID,0,VALID,18.7474,VALID,142,VALID,0.6375,
2011-08-06, 02:42:04,VALID,915.308,VALID,0,VALID,97.6255,VALID,0,VALID,18.7669,VALID,142,VALID,0.634766,
2011-08-06, 02:43:04,VALID,915.302,VALID,0,VALID,97.6178,VALID,0,VALID,18.7474,VALID,142,VALID,0.765234,
2011-08-06, 02:44:04,VALID,915.284,VALID,0,VALID,97.6026,VALID,0,VALID,18.7474,VALID,142,VALID,0.660547,
2011-08-06, 02:45:04,VALID,915.301,VALID,0,VALID,97.6178,VALID,0,VALID,18.7279,VALID,157,VALID,0.895703,
2011-08-06, 02:46:04,VALID,915.263,VALID,0,VALID,97.595,VALID,0,VALID,18.7279,VALID,152,VALID,1.24141,
2011-08-06, 02:47:04,VALID,915.217,VALID,0,VALID,97.6178,VALID,0,VALID,18.7488,VALID,152,VALID,0.823828,
2011-08-06, 02:48:04,VALID,915.231,VALID,0,VALID,97.6102,VALID,0,VALID,18.7265,VALID,152,VALID,0.583984,
2011-08-06, 02:49:04,VALID,915.229,VALID,0,VALID,97.6331,VALID,0,VALID,18.7279,VALID,152,VALID,0.3625,
2011-08-06, 02:50:04,VALID,915.227,VALID,0,VALID,97.6178,VALID,0,VALID,18.7474,VALID,154,VALID,0.425391,
2011-08-06, 02:51:04,VALID,915.232,VALID,0,VALID,97.6407,VALID,0,VALID,18.7279,VALID,154,VALID,0.391016,
2011-08-06, 02:52:04,VALID,915.216,VALID,0,VALID,97.6102,VALID,0,VALID,18.7084,VALID,154,VALID,0.646484,
2011-08-06, 02:53:04,VALID,915.234,VALID,0,VALID,97.6255,VALID,0,VALID,18.7293,VALID,154,VALID,0.746484,
2011-08-06, 02:54:04,VALID,915.236,VALID,0,VALID,97.6255,VALID,0,VALID,18.7084,VALID,154,VALID,0.399219,
2011-08-06, 02:55:04,VALID,915.21,VALID,0,VALID,97.6178,VALID,0,VALID,18.7279,VALID,154,VALID,0.401953,
2011-08-06, 02:56:04,VALID,915.187,VALID,0,VALID,97.6331,VALID,0,VALID,18.7084,VALID,154,VALID,0.645703,
2011-08-06, 02:57:04,VALID,915.162,VALID,0,VALID,97.6255,VALID,0,VALID,18.7098,VALID,154,VALID,0.341406,
2011-08-06, 02:58:04,VALID,915.157,VALID,0,VALID,97.6178,VALID,0,VALID,18.6889,VALID,154,VALID,0.291797,
2011-08-06, 02:59:04,VALID,915.152,VALID,0,VALID,97.6407,VALID,0,VALID,18.7098,VALID,154,VALID,0.357812,
2011-08-06, 03:00:04,VALID,915.157,VALID,0,VALID,97.6331,VALID,0,VALID,18.6694,VALID,154,VALID,0.555469,
2011-08-06, 03:01:04,VALID,915.176,VALID,0,VALID,97.6407,VALID,0,VALID,18.6903,VALID,154,VALID,0.322266,
2011-08-06, 03:02:04,VALID,915.182,VALID,0,VALID,97.6178,VALID,0,VALID,18.6903,VALID,154,VALID,0.36875,
2011-08-06, 03:03:04,VALID,915.159,VALID,0,VALID,97.6407,VALID,0,VALID,18.6903,VALID,154,VALID,0,
2011-08-06, 03:04:04,VALID,915.158,VALID,0,VALID,97.6331,VALID,0,VALID,18.6499,VALID,154,VALID,0.413281,
2011-08-06, 03:05:04,VALID,915.164,VALID,0,VALID,97.6407,VALID,0,VALID,18.6304,VALID,154,VALID,0.00351562,
2011-08-06, 03:06:04,VALID,915.176,VALID,0,VALID,97.6255,VALID,0,VALID,18.6499,VALID,154,VALID,0.000390625,
2011-08-06, 03:07:04,VALID,915.162,VALID,0,VALID,97.6407,VALID,0,VALID,18.6304,VALID,154,VALID,0.396484,
2011-08-06, 03:08:04,VALID,915.184,VALID,0,VALID,97.6636,VALID,0,VALID,18.5914,VALID,154,VALID,0.065625,
2011-08-06, 03:09:04,VALID,915.175,VALID,0,VALID,97.6407,VALID,0,VALID,18.6109,VALID,154,VALID,0.634766,
2011-08-06, 03:10:04,VALID,915.169,VALID,0,VALID,97.6255,VALID,0,VALID,18.5914,VALID,154,VALID,0.527344,
2011-08-06, 03:11:04,VALID,915.174,VALID,0,VALID,97.6407,VALID,0,VALID,18.5914,VALID,154,VALID,0.639844,
2011-08-06, 03:12:04,VALID,915.154,VALID,0,VALID,97.6636,VALID,0,VALID,18.5914,VALID,154,VALID,0.644141,
2011-08-06, 03:13:04,VALID,915.179,VALID,0,VALID,97.6636,VALID,0,VALID,18.5914,VALID,154,VALID,0.648438,
2011-08-06, 03:14:04,VALID,915.152,VALID,0,VALID,97.6483,VALID,0,VALID,18.572,VALID,154,VALID,0.40625,
2011-08-06, 03:15:04,VALID,915.136,VALID,0,VALID,97.6712,VALID,0,VALID,18.5734,VALID,154,VALID,0.419922,
2011-08-06, 03:16:04,VALID,915.138,VALID,0,VALID,97.656,VALID,0,VALID,18.5525,VALID,150,VALID,0.912109,
2011-08-06, 03:17:04,VALID,915.105,VALID,0,VALID,97.656,VALID,0,VALID,18.5525,VALID,143,VALID,0.924219,
2011-08-06, 03:18:04,VALID,915.102,VALID,0,VALID,97.656,VALID,0,VALID,18.5734,VALID,143,VALID,0.892578,
2011-08-06, 03:19:04,VALID,915.122,VALID,0,VALID,97.6636,VALID,0,VALID,18.533,VALID,143,VALID,0.445703,
2011-08-06, 03:20:04,VALID,915.126,VALID,0,VALID,97.6712,VALID,0,VALID,18.5539,VALID,143,VALID,0.604297,
2011-08-06, 03:21:04,VALID,915.114,VALID,0,VALID,97.6636,VALID,0,VALID,18.533,VALID,143,VALID,0.416797,
2011-08-06, 03:22:04,VALID,915.141,VALID,0,VALID,97.6712,VALID,0,VALID,18.5539,VALID,143,VALID,0.310937,
2011-08-06, 03:23:04,VALID,915.128,VALID,0,VALID,97.6712,VALID,0,VALID,18.5539,VALID,143,VALID,0.541016,
2011-08-06, 03:24:04,VALID,915.138,VALID,0,VALID,97.6788,VALID,0,VALID,18.5344,VALID,143,VALID,0.364844,
2011-08-06, 03:25:04,VALID,915.119,VALID,0,VALID,97.656,VALID,0,VALID,18.5135,VALID,143,VALID,0.377734,
2011-08-06, 03:26:04,VALID,915.119,VALID,0,VALID,97.6865,VALID,0,VALID,18.494,VALID,143,VALID,0.620703,
2011-08-06, 03:27:04,VALID,915.151,VALID,0,VALID,97.6788,VALID,0,VALID,18.494,VALID,143,VALID,0.58125,
2011-08-06, 03:28:04,VALID,915.1,VALID,0,VALID,97.6865,VALID,0,VALID,18.4745,VALID,143,VALID,0.539063,
2011-08-06, 03:29:04,VALID,915.091,VALID,0,VALID,97.6636,VALID,0,VALID,18.494,VALID,143,VALID,0.492188,
2011-08-06, 03:30:04,VALID,915.097,VALID,0,VALID,97.6788,VALID,0,VALID,18.5149,VALID,143,VALID,0.307422,
2011-08-06, 03:31:04,VALID,915.079,VALID,0,VALID,97.6865,VALID,0,VALID,18.5149,VALID,143,VALID,0.329297,
2011-08-06, 03:32:04,VALID,915.055,VALID,0,VALID,97.6712,VALID,0,VALID,18.5149,VALID,143,VALID,0.278516,
2011-08-06, 03:33:04,VALID,915.076,VALID,0,VALID,97.7017,VALID,0,VALID,18.4954,VALID,143,VALID,0.365625,
2011-08-06, 03:34:04,VALID,915.07,VALID,0,VALID,97.7169,VALID,0,VALID,18.494,VALID,143,VALID,0.40625,
2011-08-06, 03:35:04,VALID,915.052,VALID,0,VALID,97.6712,VALID,0,VALID,18.4745,VALID,143,VALID,0.575391,
2011-08-06, 03:36:04,VALID,915.068,VALID,0,VALID,97.6865,VALID,0,VALID,18.4341,VALID,143,VALID,0.778516,
2011-08-06, 03:37:04,VALID,915.05,VALID,0,VALID,97.6941,VALID,0,VALID,18.455,VALID,142,VALID,1.02305,
2011-08-06, 03:38:04,VALID,915.056,VALID,0,VALID,97.6788,VALID,0,VALID,18.416,VALID,142,VALID,0.985937,
2011-08-06, 03:39:04,VALID,915.022,VALID,0,VALID,97.7093,VALID,0,VALID,18.416,VALID,141,VALID,1.03984,
2011-08-06, 03:40:04,VALID,915.039,VALID,0,VALID,97.6941,VALID,0,VALID,18.3965,VALID,141,VALID,0.666797,
2011-08-06, 03:41:04,VALID,914.992,VALID,0,VALID,97.6941,VALID,0,VALID,18.377,VALID,141,VALID,0.451172,
2011-08-06, 03:42:04,VALID,914.991,VALID,0,VALID,97.6941,VALID,0,VALID,18.3561,VALID,137,VALID,0.592578,
2011-08-06, 03:43:04,VALID,915.003,VALID,0,VALID,97.6941,VALID,0,VALID,18.3575,VALID,119,VALID,0.702734,
2011-08-06, 03:44:04,VALID,915.026,VALID,0,VALID,97.6941,VALID,0,VALID,18.3575,VALID,119,VALID,0.738281,
2011-08-06, 03:45:04,VALID,915.003,VALID,0,VALID,97.6941,VALID,0,VALID,18.3575,VALID,119,VALID,0.698828,
2011-08-06, 03:46:04,VALID,915.035,VALID,0,VALID,97.7017,VALID,0,VALID,18.3172,VALID,119,VALID,0.880859,